Weather observations for the past three days for
Kuparuk, Ugnu-Kuparuk Airport
Imperial (Metric)
Date Time (akdt) Wind (mph) Vis. (mi.) Weather Sky Cond. Temperature (ºF) Relative Humidity Wind Chill (°F) Heat Index (°F) Pressure Precipitation (in)
Air Dwpt 6 hour altimeter (in) sea level (mb) 1 hr 3 hr 6 hr
Max. Min.
07 18:45 W 3 10.00 Overcast OVC009 19.4 15.8 86% 30.26 0.0
07 17:45 W 5 10.00 Overcast OVC008 19.4 15.8 86% 14 30.26 0.0
07 16:45 W 5 10.00 Overcast OVC009 19.4 15.8 86% 14 30.26 0.0
07 15:45 W 8 10.00 Overcast OVC009 19.4 15.8 86% 10 30.26 0.0
07 14:45 W 9 10.00 Overcast OVC009 19.4 15.8 86% 10 30.25 0.0
07 13:45 W 8 10.00 Overcast OVC007 19.4 15.8 86% 10 30.24 0.0
07 12:45 W 9 10.00 Overcast OVC007 17.6 15.8 93% 7 30.24 0.0
07 11:45 NW 7 10.00 Overcast OVC006 17.6 14 86% 9 30.23 0.0
07 10:45 W 10 10.00 Overcast OVC005 17.6 15.8 93% 7 30.22 0.0
07 09:45 W 10 10.00 Overcast OVC005 17.6 15.8 93% 7 30.21 0.0
07 08:45 NW 9 10.00 Mostly Cloudy BKN006 17.6 15.8 93% 7 30.2 0.0
07 07:45 W 10 10.00 Mostly Cloudy BKN008 17.6 15.8 93% 7 30.19 0.0
07 06:45 W 12 10.00 Mostly Cloudy BKN012 19.4 17.6 93% 8 30.16 0.0
07 05:45 NW 9 10.00 Mostly Cloudy BKN013 19.4 17.6 93% 10 30.16 0.0
07 04:48 NW 7 10.00 Mostly Cloudy BKN013 19.4 17.6 93% 11 30.15 0.0
07 03:45 NW 7 10.00 Mostly Cloudy BKN013 21.2 17.6 86% 13 30.13 0.0
06 18:45 W 16 10.00 Low Drifting Snow OVC012 24.8 19.4 80% 13 29.99 0.0
06 17:45 W 17 10.00 Low Drifting Snow OVC013 24.8 21.2 86% 12 29.98 0.0
06 16:45 W 18 10.00 Low Drifting Snow BKN012 24.8 19.4 80% 12 29.97 0.0
06 15:45 W 17 10.00 Low Drifting Snow BKN013 24.8 19.4 80% 12 29.95 0.0
06 14:45 W 16 10.00 Low Drifting Snow BKN012 24.8 19.4 80% 13 29.94 0.0
06 13:45 W 15 10.00 Low Drifting Snow BKN012 24.8 19.4 80% 13 29.92 0.0
06 12:45 W 18 10.00 Low Drifting Snow BKN014 23 19.4 86% 10 29.9 0.0
06 11:45 W 18 10.00 Low Drifting Snow SCT008 BKN015 23 19.4 86% 10 29.88 0.0
06 09:45 W 18 7.00 Low Drifting Snow BKN006 OVC017 21.2 19.4 93% 7 29.86 0.0
06 08:45 W 17 7.00 Low Drifting Snow BKN008 19.4 19.4 100% 5 29.84 0.0
06 07:45 W 16 7.00 Low Drifting Snow BKN007 19.4 17.6 93% 6 29.83 0.0
06 06:45 W 17 7.00 Low Drifting Snow BKN012 19.4 19.4 100% 5 29.81 0.0
06 05:48 W 16 10.00 Low Drifting Snow BKN008 21.2 19.4 93% 8 29.81 0.0
06 04:45 W 17 10.00 Low Drifting Snow BKN011 19.4 19.4 100% 5 29.79 0.0
06 03:45 W 16 10.00 Low Drifting Snow BKN090 BKN130 17.6 17.6 100% 4 29.78 0.0
05 18:45 NW 13 4.00 Light Snow Fog/Mist BKN006 BKN017 OVC034 23 21.2 93% 12 29.73 0.0
05 17:45 NW 10 4.00 Light Snow Fog/Mist BKN006 OVC045 23 21.2 93% 13 29.73 0.0
05 16:45 NW 9 3.00 Light Snow Fog/Mist BKN005 BKN028 OVC050 23 23 100% 14 29.73 0.0
05 15:45 N 7 1.50 Light Snow Fog/Mist BKN007 OVC023 24.8 23 93% 18 29.73 0.0
05 14:45 N 8 3.00 Light Snow Fog/Mist BKN005 OVC027 23 23 100% 15 29.74 0.0
05 13:45 NE 12 1.50 Light Snow Fog/Mist OVC028 23 21.2 93% 13 29.74 0.0
05 12:45 NE 13 1.50 Light Snow Low Drifting Snow Fog/Mist BKN024 OVC042 23 21.2 93% 12 29.75 0.0
05 11:45 NE 13 1.00 Light Snow Low Drifting Snow Fog/Mist BKN017 OVC031 21.2 21.2 100% 10 29.76 0.0
05 10:45 NE 13 0.75 Light Snow Low Drifting Snow Fog/Mist BKN007 OVC023 21.2 21.2 100% 10 29.77 0.0
05 09:45 NE 15 0.75 Light Snow Low Drifting Snow Fog/Mist BKN010 OVC026 21.2 21.2 100% 9 29.78 0.0
05 08:45 NE 17 0.75 Light Snow Low Drifting Snow Fog/Mist OVC026 0 0 0% 29.79 0.0
05 07:45 NE 16 0.75 Light Snow Low Drifting Snow Fog/Mist BKN012 OVC034 21.2 21.2 100% 8 29.8 0.0
05 06:45 NE 18 0.75 Fog/Mist Low Drifting Snow OVC004 21.2 21.2 100% 7 29.82 0.0
05 05:45 NE 16 0.75 Fog/Mist Low Drifting Snow OVC003 23 21.2 93% 11 29.84 0.0
05 04:45 NE 17 1.00 Fog/Mist Low Drifting Snow OVC003 23 21.2 93% 10 29.86 0.0
05 03:45 NE 16 1.00 Fog/Mist Low Drifting Snow OVC004 23 21.2 93% 11 29.88 0.0
Date Time (akdt) Wind (mph) Vis. (mi.) Weather Sky Cond. Air Dwpt Max. Min. Relative Humidity Wind Chill (°F) Heat Index (°F) altimeter (in) sea level (mb) 1 hr 3 hr 6 hr
6 hour
Temperature (ºF) Pressure Precipitation (in)